Location: Cedar Brake
(32.2526°N, 97.8459°W)
Time: 20:58:49
(UTC+00:00)

Cosmos 2285 Rocket - Pass Details

Date: 22 April 2026
Orbit: 970 x 997 km, 74.0° (Epoch: 21 May)

Event Time Altitude Azimuth Distance (km) Brightness Sun altitude
Rises 02:38:32 0° 187° (S) 3,688 6.8 -19.1°
Reaches altitude 10° 02:41:06 10° 185° (S) 2,739 6.1 -19.6°
Maximum altitude 02:47:23 68° 104° (ESE) 1,057 3.9 -20.7°
Drops below altitude 10° 02:53:40 10° 22° (NNE) 2,735 6.4 -21.9°
Sets 02:56:13 0° 20° (NNE) 3,682 7.2 -22.3°
